CFG4AF EDDH-EDDF

Flight info

Callsign CFG4AF
Flight time 0h 52m
Altitude 30000
Route AMLUH2D AMLUH M852 DENIX DCT RIMET/N0433F310 T157 KOKEB/N0387F230 T157 KERAX KERAX5D
Aircraft A321/M-SDE3FGHIJ1LORVWXYZ/LB1D1

Departure

Time 2026-05-01 14:31
Airport Hamburg Helmut Schmidt Airport (EDDH)

Arrival

Time 2026-05-01 15:24
Airport Frankfurt Main Airport (EDDF)
Time Latitude Longitude Altitude Speed Heading
2026-05-01 13:54 53.63372 10.00336 46 ft 0 kts 86°
2026-05-01 14:04 53.63373 10.00350 49 ft 0 kts 86°
2026-05-01 14:04 53.63331 10.00358 49 ft 0 kts 86°
2026-05-01 14:23 53.63330 10.00337 49 ft 4 kts 86°
2026-05-01 14:23 53.63329 10.00301 46 ft 3 kts 85°
2026-05-01 14:23 53.63323 10.00259 45 ft 4 kts 53°
2026-05-01 14:23 53.63303 10.00236 45 ft 4 kts
2026-05-01 14:24 53.63298 10.00236 46 ft 0 kts 356°
2026-05-01 14:27 53.63302 10.00236 45 ft 3 kts 356°
2026-05-01 14:28 53.63449 10.00220 49 ft 15 kts 351°
2026-05-01 14:28 53.63531 10.00126 49 ft 13 kts 320°
2026-05-01 14:28 53.63541 10.00113 50 ft 0 kts 320°
2026-05-01 14:29 53.63557 10.00090 51 ft 7 kts 320°
2026-05-01 14:29 53.63600 10.00030 53 ft 7 kts 320°
2026-05-01 14:30 53.63591 9.99944 50 ft 0 kts 230°
2026-05-01 14:30 53.63578 9.99918 52 ft 22 kts 230°
2026-05-01 14:31 53.62709 9.98173 54 ft 155 kts 229°
2026-05-01 14:31 53.62020 9.96776 641 ft 160 kts 227°
2026-05-01 14:31 53.61298 9.95255 1257 ft 170 kts 229°
2026-05-01 14:31 53.60501 9.93621 1641 ft 191 kts 227°
2026-05-01 14:32 53.59617 9.91825 1995 ft 211 kts 227°
2026-05-01 14:32 53.58658 9.89873 2695 ft 219 kts 228°
2026-05-01 14:32 53.57685 9.87893 3540 ft 225 kts 227°
2026-05-01 14:32 53.56486 9.86341 3757 ft 214 kts 193°
2026-05-01 14:33 53.55038 9.86416 4186 ft 213 kts 156°
2026-05-01 14:33 53.53876 9.87912 5132 ft 213 kts 135°
2026-05-01 14:33 53.52801 9.89639 6009 ft 215 kts 138°
2026-05-01 14:33 53.51872 9.91646 6829 ft 223 kts 120°
2026-05-01 14:34 53.51416 9.94276 7303 ft 250 kts 99°
2026-05-01 14:34 53.51047 9.97241 7751 ft 267 kts 119°
2026-05-01 14:34 53.49793 9.99492 8504 ft 268 kts 153°
2026-05-01 14:34 53.47985 10.00183 9397 ft 271 kts 179°
2026-05-01 14:35 53.46093 10.00132 10331 ft 273 kts 180°
2026-05-01 14:35 53.44142 10.00063 10857 ft 291 kts 180°
2026-05-01 14:35 53.42033 10.00065 11111 ft 315 kts 178°
2026-05-01 14:35 53.39782 10.00165 11540 ft 330 kts 177°
2026-05-01 14:36 53.37466 10.00347 12268 ft 336 kts 176°
2026-05-01 14:36 53.35139 10.00578 13036 ft 341 kts 175°
2026-05-01 14:36 53.32731 10.00848 13843 ft 345 kts 175°
2026-05-01 14:36 53.30350 10.01129 14572 ft 350 kts 175°
2026-05-01 14:37 53.27911 10.01419 15286 ft 354 kts 175°
2026-05-01 14:37 53.25438 10.01707 15961 ft 359 kts 175°
2026-05-01 14:37 53.22929 10.01990 16636 ft 364 kts 175°
2026-05-01 14:37 53.20388 10.02269 17312 ft 368 kts 175°
2026-05-01 14:38 53.17815 10.02550 17993 ft 372 kts 175°
2026-05-01 14:38 53.15218 10.02832 18675 ft 376 kts 175°
2026-05-01 14:38 53.12593 10.03116 19236 ft 380 kts 175°
2026-05-01 14:38 53.09938 10.03403 19818 ft 384 kts 175°
2026-05-01 14:39 53.07264 10.03696 20365 ft 388 kts 175°
2026-05-01 14:39 53.04560 10.03990 20942 ft 391 kts 175°
2026-05-01 14:39 53.01829 10.04287 21533 ft 394 kts 175°
2026-05-01 14:39 52.99083 10.04591 22091 ft 398 kts 175°
2026-05-01 14:40 52.96309 10.04899 22690 ft 400 kts 175°
2026-05-01 14:40 52.93520 10.05201 23272 ft 403 kts 175°
2026-05-01 14:40 52.90697 10.05501 23776 ft 408 kts 175°
2026-05-01 14:40 52.87853 10.05805 24252 ft 411 kts 175°
2026-05-01 14:41 52.84981 10.06113 24679 ft 416 kts 175°
2026-05-01 14:41 52.82090 10.06425 25183 ft 417 kts 175°
2026-05-01 14:41 52.79181 10.06739 25615 ft 420 kts 175°
2026-05-01 14:41 52.76257 10.07056 26107 ft 422 kts 175°
2026-05-01 14:42 52.73317 10.07377 26557 ft 425 kts 175°
2026-05-01 14:42 52.70354 10.07700 26970 ft 428 kts 175°
2026-05-01 14:42 52.67367 10.08023 27359 ft 432 kts 175°
2026-05-01 14:42 52.64353 10.08348 27765 ft 436 kts 175°
2026-05-01 14:43 52.61321 10.08671 28204 ft 438 kts 175°
2026-05-01 14:43 52.58262 10.08992 28622 ft 441 kts 175°
2026-05-01 14:43 52.55235 10.09309 29015 ft 443 kts 175°
2026-05-01 14:43 52.52143 10.09637 29367 ft 447 kts 175°
2026-05-01 14:44 52.49029 10.09966 29741 ft 450 kts 175°
2026-05-01 14:44 52.42782 10.10629 30344 ft 444 kts 175°
2026-05-01 14:44 52.39731 10.10950 30346 ft 436 kts 175°
2026-05-01 14:45 52.30718 10.11910 30352 ft 433 kts 175°
2026-05-01 14:46 52.24702 10.12544 30345 ft 433 kts 176°
2026-05-01 14:46 52.15690 10.13478 30344 ft 432 kts 175°
2026-05-01 14:47 52.09683 10.14102 30346 ft 432 kts 176°
2026-05-01 14:48 52.00673 10.15051 30350 ft 433 kts 175°
2026-05-01 14:48 51.91660 10.15983 30340 ft 433 kts 175°
2026-05-01 14:49 51.79634 10.17227 30346 ft 433 kts 175°
2026-05-01 14:50 51.67588 10.18473 30340 ft 434 kts 175°
2026-05-01 14:51 51.58585 10.19381 30310 ft 435 kts 175°
2026-05-01 14:52 51.52534 10.19993 29744 ft 436 kts 175°
2026-05-01 14:52 51.49506 10.20302 29457 ft 436 kts 175°
2026-05-01 14:52 51.43435 10.20928 28901 ft 437 kts 175°
2026-05-01 14:53 51.40394 10.21238 28632 ft 438 kts 175°
2026-05-01 14:53 51.37352 10.21551 28361 ft 438 kts 175°
2026-05-01 14:53 51.34305 10.21863 28096 ft 439 kts 175°
2026-05-01 14:53 51.31245 10.22080 27831 ft 441 kts 177°
2026-05-01 14:54 51.28176 10.22108 27569 ft 442 kts 180°
2026-05-01 14:54 51.25101 10.22002 27312 ft 443 kts 181°
2026-05-01 14:54 51.22064 10.21213 27045 ft 443 kts 197°
2026-05-01 14:54 51.19253 10.19234 26785 ft 443 kts 207°
2026-05-01 14:55 51.16541 10.16910 26537 ft 442 kts 207°
2026-05-01 14:55 51.13838 10.14575 26285 ft 441 kts 208°
2026-05-01 14:55 51.11151 10.12238 26038 ft 439 kts 208°
2026-05-01 14:55 51.08465 10.09905 25788 ft 438 kts 207°
2026-05-01 14:56 51.05792 10.07591 25518 ft 437 kts 207°
2026-05-01 14:56 51.03128 10.05295 25149 ft 434 kts 207°
2026-05-01 14:56 51.00475 10.03018 24790 ft 432 kts 207°
2026-05-01 14:56 50.97832 10.00760 24433 ft 430 kts 207°
2026-05-01 14:57 50.95203 9.98511 24077 ft 428 kts 207°
2026-05-01 14:57 50.89998 9.94062 23298 ft 423 kts 206°
2026-05-01 14:57 50.87409 9.91852 22890 ft 421 kts 207°
2026-05-01 14:58 50.84838 9.89663 22489 ft 418 kts 207°
2026-05-01 14:58 50.82285 9.87490 22095 ft 415 kts 206°
2026-05-01 14:58 50.79746 9.85335 21708 ft 412 kts 206°
2026-05-01 14:58 50.77226 9.83196 21317 ft 410 kts 206°
2026-05-01 14:59 50.74722 9.81078 20940 ft 407 kts 206°
2026-05-01 14:59 50.72264 9.79006 20574 ft 404 kts 206°
2026-05-01 14:59 50.69791 9.76926 20199 ft 402 kts 206°
2026-05-01 14:59 50.67335 9.74855 19833 ft 399 kts 206°
2026-05-01 15:00 50.62470 9.70755 19107 ft 394 kts 206°
2026-05-01 15:00 50.60058 9.68730 18754 ft 392 kts 206°
2026-05-01 15:00 50.57660 9.66722 18475 ft 390 kts 206°
2026-05-01 15:01 50.55268 9.64714 18206 ft 389 kts 206°
2026-05-01 15:01 50.52916 9.62633 17932 ft 388 kts 210°
2026-05-01 15:01 50.50757 9.60086 17675 ft 389 kts 219°
2026-05-01 15:01 50.48862 9.57061 17419 ft 389 kts 228°
2026-05-01 15:02 50.47272 9.53621 17159 ft 390 kts 236°
2026-05-01 15:02 50.46813 9.52372 17072 ft 391 kts 240°
2026-05-01 15:02 50.45178 9.45760 16640 ft 391 kts 252°
2026-05-01 15:02 50.44677 9.43046 16471 ft 391 kts 252°
2026-05-01 15:03 50.43913 9.38970 16221 ft 389 kts 251°
2026-05-01 15:03 50.43133 9.34916 15969 ft 388 kts 251°
2026-05-01 15:03 50.42175 9.30983 15720 ft 385 kts 243°
2026-05-01 15:03 50.40844 9.27362 15476 ft 382 kts 233°
2026-05-01 15:04 50.39202 9.24140 15229 ft 377 kts 224°
2026-05-01 15:04 50.37287 9.21373 14983 ft 373 kts 216°
2026-05-01 15:04 50.35154 9.19088 14743 ft 370 kts 209°
2026-05-01 15:04 50.32967 9.16975 14502 ft 369 kts 210°
2026-05-01 15:05 50.30805 9.14814 14268 ft 369 kts 213°
2026-05-01 15:05 50.28857 9.12210 14036 ft 370 kts 223°
2026-05-01 15:05 50.27201 9.09123 13769 ft 371 kts 232°
2026-05-01 15:05 50.25889 9.05650 13502 ft 372 kts 242°
2026-05-01 15:06 50.24931 9.01904 13238 ft 372 kts 248°
2026-05-01 15:06 50.24056 8.98104 12977 ft 370 kts 248°
2026-05-01 15:06 50.23175 8.94330 12719 ft 368 kts 248°
2026-05-01 15:06 50.22295 8.90587 12465 ft 367 kts 248°
2026-05-01 15:07 50.21413 8.86858 12211 ft 365 kts 247°
2026-05-01 15:07 50.20537 8.83155 11942 ft 363 kts 247°
2026-05-01 15:07 50.19665 8.79469 11623 ft 361 kts 248°
2026-05-01 15:07 50.18798 8.75803 11304 ft 358 kts 248°
2026-05-01 15:08 50.17940 8.72183 10970 ft 355 kts 247°
2026-05-01 15:08 50.17084 8.68575 10611 ft 352 kts 247°
2026-05-01 15:08 50.16247 8.65051 10260 ft 350 kts 247°
2026-05-01 15:08 50.15405 8.61507 9869 ft 346 kts 247°
2026-05-01 15:09 50.14579 8.58036 9481 ft 338 kts 247°
2026-05-01 15:09 50.13778 8.54673 9077 ft 318 kts 246°
2026-05-01 15:09 50.13038 8.51570 8701 ft 294 kts 246°
2026-05-01 15:09 50.12334 8.48630 8332 ft 288 kts 246°
2026-05-01 15:10 50.11634 8.45718 7964 ft 286 kts 246°
2026-05-01 15:10 50.10251 8.39970 7274 ft 279 kts 247°
2026-05-01 15:10 50.09571 8.37152 7031 ft 277 kts 247°
2026-05-01 15:11 50.08891 8.34342 6790 ft 276 kts 246°
2026-05-01 15:11 50.07540 8.28777 6283 ft 274 kts 246°
2026-05-01 15:11 50.06863 8.25999 6030 ft 273 kts 246°
2026-05-01 15:12 50.06199 8.23273 5798 ft 272 kts 246°
2026-05-01 15:12 50.04859 8.17786 5295 ft 271 kts 245°
2026-05-01 15:12 50.04191 8.15054 5065 ft 269 kts 245°
2026-05-01 15:13 50.02105 8.06923 5011 ft 267 kts 234°
2026-05-01 15:14 49.99363 8.03671 5005 ft 234 kts 203°
2026-05-01 15:14 49.98153 8.02099 5007 ft 227 kts 233°
2026-05-01 15:14 49.97203 7.97491 5008 ft 222 kts 247°
2026-05-01 15:15 49.95229 7.94297 5005 ft 207 kts 194°
2026-05-01 15:15 49.92508 7.94942 5013 ft 215 kts 142°
2026-05-01 15:16 49.91477 7.99201 5007 ft 230 kts 79°
2026-05-01 15:16 49.92600 8.03923 5004 ft 236 kts 72°
2026-05-01 15:17 49.93733 8.08516 4998 ft 218 kts 73°
2026-05-01 15:18 49.95252 8.14744 5000 ft 197 kts 74°
2026-05-01 15:18 49.95738 8.16746 4918 ft 198 kts 74°
2026-05-01 15:19 49.97114 8.22396 4197 ft 175 kts 74°
2026-05-01 15:19 49.97942 8.25809 3722 ft 163 kts 72°
2026-05-01 15:19 49.98338 8.27443 3491 ft 159 kts 72°
2026-05-01 15:20 49.99096 8.30573 3048 ft 150 kts 72°
2026-05-01 15:20 49.99464 8.32097 2840 ft 151 kts 72°
2026-05-01 15:20 49.99833 8.33621 2617 ft 149 kts 72°
2026-05-01 15:21 50.00190 8.35099 2438 ft 142 kts 75°
2026-05-01 15:21 50.00528 8.36497 2237 ft 134 kts 75°
2026-05-01 15:21 50.00847 8.37818 2041 ft 129 kts 75°
2026-05-01 15:21 50.01166 8.39143 1855 ft 131 kts 73°
2026-05-01 15:22 50.01807 8.41807 1484 ft 131 kts 73°
2026-05-01 15:22 50.02116 8.43143 1262 ft 132 kts 76°
2026-05-01 15:22 50.02422 8.44448 1080 ft 126 kts 73°
2026-05-01 15:23 50.02746 8.45695 916 ft 124 kts 72°
2026-05-01 15:23 50.03042 8.46974 757 ft 128 kts 72°
2026-05-01 15:23 50.03364 8.48297 573 ft 131 kts 71°
2026-05-01 15:23 50.03687 8.49608 396 ft 130 kts 71°
2026-05-01 15:24 50.03982 8.50867 326 ft 112 kts 70°
2026-05-01 15:24 50.04188 8.51720 334 ft 49 kts 70°
2026-05-01 15:24 50.04240 8.52069 340 ft 30 kts 89°
2026-05-01 15:24 50.04214 8.52377 346 ft 28 kts 99°
2026-05-01 15:25 50.04200 8.52657 355 ft 25 kts 78°
2026-05-01 15:25 50.04258 8.52914 358 ft 25 kts 70°
2026-05-01 15:25 50.04317 8.53166 366 ft 24 kts 70°
2026-05-01 15:25 50.04372 8.53388 372 ft 21 kts 68°
2026-05-01 15:26 50.04401 8.53612 376 ft 24 kts 85°
2026-05-01 15:26 50.04423 8.53919 376 ft 31 kts 82°
2026-05-01 15:26 50.04445 8.54254 375 ft 32 kts 84°
2026-05-01 15:26 50.04440 8.54553 369 ft 26 kts 105°
2026-05-01 15:27 50.04332 8.54754 358 ft 26 kts 146°
2026-05-01 15:27 50.04168 8.54856 354 ft 21 kts 163°
2026-05-01 15:27 50.04041 8.54928 357 ft 12 kts 150°
2026-05-01 15:28 50.04045 8.55122 356 ft 13 kts 68°
2026-05-01 15:28 50.04081 8.55280 357 ft 18 kts 72°
2026-05-01 15:28 50.04124 8.55461 353 ft 11 kts 71°
2026-05-01 15:29 50.04066 8.55532 355 ft 4 kts 159°
2026-05-01 15:29 50.04047 8.55543 356 ft 2 kts 160°
2026-05-01 15:29 50.04041 8.55546 354 ft 0 kts 160°